Whitney Point, NY (13862)

1:09 PM EST on February 27, 2017 (GMT -0500)
Whitney Point Estates Weather | | Change Station
Active Advisory: Flood Warning

Elev 1017 ft 42.35 °N, 75.99 °W | Updated 2 seconds ago

Clear
Clear
49.2 °F
Feels Like 45 °F
N
9.0
Wind Variable Wind from SW
Gusts 16.0 mph

Today
High -- | Low -- °F
--% Chance of Precip.
Yesterday
High -- | Low -- °F
Precip. -- in
Pressure 30.30 in
Visibility 10.0 miles
Clouds Clear
Windchill 45 °F
Dew Point 24 °F
Humidity 37%
Rainfall 0.00 in
Snow Depth Not available.
6:42 AM 5:51 PM
New Moon, 2% visible
METAR KBGM 271753Z 21014G20KT 10SM CLR 07/M08 A3025 RMK AO2 SLP258 T00721078 10072 21017 58004
Pressure 30.30 in
Visibility 10.0 miles
Clouds Clear
Windchill 45 °F
Dew Point 24 °F
Humidity 37%
Rainfall 0.00 in
Snow Depth Not available.
6:42 AM 5:51 PM
New Moon, 2% visible
METAR KBGM 271753Z 21014G20KT 10SM CLR 07/M08 A3025 RMK AO2 SLP258 T00721078 10072 21017 58004

Get Your Daily Forecast Email!

Thanks for signing up!

Be on the lookout for a verification email in your inbox.

You'll start receiving the daily forecast at 8 AM.

×

10-Day Weather Forecast

Almanac

Astronomy

Feb. 27, 2017 Rise Set
Actual Time
Civil Twilight
Nautical Twilight
Astronomical Twilight
Moon
Length of Visible Light
Length of Day
Tomorrow will be .
, % of the Moon is Illuminated

Today's Extremes

State Highs State Lows

Community

WunderPhotos

Upload Photos

1,962,540 photos uploaded!

WunderBlog® & News

Nearby

Air Quality

  Air Quality AQ Index Pollutant
Not available.

Snow Depth

Station Depth Elevation

Earthquake Activity

City Distance Mag. Time & Date
Minimum magnitude displayed is 2.5.

Coastal Water Temperatures

Place Temperature

Stations

Nearby Weather Stations

Station Location Temp. Windchill Dew Point Humidity Wind Precip. Elev Updated Type
                   

Watches & Warnings

Flood Warning
Issued: 9:53 PM EST Feb. 26, 2017 – National Weather Service

The Flood Warning continues for
the Susquehanna River at Conklin.
* Until late Monday night.
* At 9 PM Sunday the stage was 12.6 feet.
* Flood stage is 12.0 feet.
* Minor flooding is occurring and minor flooding is forecast.
* Forecast... the river will continue to fall to below flood stage after 1 PM
Monday.
* Impact... at 12.0 feet... flood stage. Alta, river and Lawrence roads closed in
the town of Conklin due to minor flooding. No homes are flooded at this river
Stage. Valley park in Kirkwood takes on water.


Lat... Lon 4211 7587 4210 7582 4198 7572 4195 7558
      4194 7574 4209 7587